Regional Weather Roundup
Issued by NWS Wakefield, VA

Home | Current Version | Previous Version | Graphics & Text | Print | Product List | Glossary On
Versions: 1 2 3 4 5 6 7 8 9 10 11 12 13 14 15 16 17 18 19 20 21 22 23 24 25 26 27 28 29 30 31 32 33 34 35 36 37 38 39 40 41 42 43 44 45 46 47 48 49 50
076
ASUS41 KAKQ 201815
RWRAKQ

REGIONAL WEATHER ROUNDUP
NATIONAL WEATHER SERVICE WAKEFIELD VA
200 PM EDT FRI APR 20 2018

Note: "fair" indicates few or no clouds below 12,000 feet with no
significant weather and/or obstructions to visibility. * = Denotes
station may not report precipitation (e.g., rain,snow,etc.),
thunder or fog.

VAZ042-051-052>054-056-201900-
NORTHERN VIRGINIA

CITY           SKY/WX    TMP DP  RH WIND       PRES   REMARKS
WASH NATIONAL  FAIR      56  27  32 NW16G26   30.30F
DULLES         FAIR      56  23  27 N15G22    30.29F
FORT BELVOIR   FAIR      56  22  26 NW20G25   30.28F
QUANTICO       FAIR      58  27  30 NW15G23   30.30F
FREDERICKSBRG* FAIR      57  27  31 NW15G21   30.29F
STAFFORD*      FAIR      58  27  30 NW16G23   30.33F
WARRENTON      FAIR      58  18  21 NW15G22   30.29F
CULPEPER*      FAIR      59  21  23 N16       30.30F
MANASSAS*      FAIR      55  27  33 NW9G23    30.29F
LEESBURG*      FAIR      55  28  35 N14       30.30F
WINCHESTER     FAIR      52  23  32 NW17G25   30.31F
FRONT ROYAL*   FAIR      54  27  35 W10       30.29F
LURAY*         FAIR      55  23  28 N5G16     30.30F
$$

VAZ048-049-060>072-079>083-201900-
CENTRAL AND SOUTH CENTRAL VIRGINIA

CITY           SKY/WX    TMP DP  RH WIND       PRES   REMARKS
RICHMOND       FAIR      59  23  25 NW16G23   30.30F
CHESTERFIELD*  FAIR      58  23  26 VRB7G18   30.30F
PETERSBURG*    FAIR      57  18  21 W10G20    30.31F
HANOVER        FAIR      58  22  24 NW7       30.31F
TAPPAHANNOCK*  FAIR      57  26  30 NW10G18   30.30S
QUINTON*       FAIR      56  25  30 W7G17     30.29F
CHARLOTTSVILLE FAIR      61  20  20 VRB7      30.29F
GORDONSVILLE*  FAIR      58  24  26 CALM      30.29F
ORANGE*        FAIR      55  23  28 CALM      30.29F
LOUISA*        FAIR      58  20  23 W7        30.33F
BUMPASS*       FAIR      58  16  19 CALM      30.29F
FARMVILLE*     FAIR      60  13  16 NW7       30.30F
CREWE*         FAIR      59  24  26 NW13      30.31F
FORT PICKETT*  FAIR      58  22  25 SW7       30.31F
CHASE CITY*    FAIR      58  24  27 NW9       30.32F
CLARKSVILLE*   FAIR      59  27  29 N6        30.32F
SOUTH HILL*    FAIR      56  22  26 NW8       30.37F
LAWRENCEVILLE* FAIR      58  21  23 N15G21    30.31F
EMPORIA*       FAIR      55  23  28 W10       30.33S
$$

VAZ088>098-201900-
SOUTHEAST VIRGINIA

CITY           SKY/WX    TMP DP  RH WIND       PRES   REMARKS
NORFOLK        FAIR      55  28  35 N8        30.29F
VIRGINIA BEACH FAIR      54  28  36 NW13G21   30.29F
NORFOLK NAVAL  FAIR      56  27  32 W16       30.31S
WEST POINT*    FAIR      57  23  26 NW7       30.32S
SALUDA*        FAIR      53  27  36 NW12G17   30.29F
NEWPORT NEWS   FAIR      57  28  33 VRB3      30.29F
LANGLEY AFB    FAIR      57  25  29 NW14G22   30.29F
FORT EUSTIS    FAIR      57  29  34 NW8G17    30.28S
WILLIAMSBURG*  FAIR      61  19  20 NW8G22    30.30S
HR EXEC AP*    FAIR      58  25  28 NW7       30.31S
FRANKLIN*      FAIR      57  23  26 W15G22    30.31S
US460-WAKEFLD  FAIR      58  23  26 NW10      30.30F
$$

VAZ020-022-025-037-045-201900-
WEST CENTRAL AND SOUTHWEST VIRGINIA

CITY           SKY/WX    TMP DP  RH WIND       PRES   REMARKS
STAUNTON*      FAIR      55  22  27 N7        30.31F
WAYNESBORO*    FAIR      56  20  24 NW8       30.29F
HOT SPRINGS VA FAIR      47   1  15 NW9G17    30.30S
LYNCHBURG      FAIR      58  14  17 NW5       30.32F
DANVILLE       FAIR      60  24  25 N9        30.33F
SOUTH BOSTON*  FAIR      60  16  18 N10G20    30.33F
MARTINSVILLE   FAIR      60  20  21 SE3       30.35F
ROANOKE        FAIR      59  18  20 NW7       30.34F
BLACKSBURG     FAIR      54  21  27 W8        30.36F
DUBLIN*        FAIR      54  17  23 N8        30.36F
MARION*        FAIR      56  18  22 W3        30.37S
HILLSVILLE*    FAIR      52  14  22 NW13G18   30.32F
RICHLANDS*     FAIR      52  17  25 NW7       30.37F
WISE*          FAIR      52  23  32 CALM      30.39F
ABINGDON*      FAIR      57  27  31 W8        30.37F
$$

MDZ021>025-VAZ099-100-201900-
SOUTHERN MARYLAND AND THE DELMARVA PENINSULA

CITY           SKY/WX    TMP DP  RH WIND       PRES   REMARKS
PATUXENT RIVER FAIR      57  27  31 NW17      30.28F
BAY BRIDGE APT FAIR      52  28  40 N8        30.28F
LEONARDTOWN    FAIR      54  25  32 W12G20    30.29F
DOVER          MOSUNNY   52  29  41 W15       30.26S
GEORGETOWN     FAIR      53  27  36 NW10G21   30.26F
EASTON         SUNNY     54  27  35 NW12G21   30.31F
CAMBRIDGE        N/A    N/A N/A N/A MISG        N/A
SALISBURY      FAIR      52  27  38 NW13G24   30.27F
TANGIER        FAIR      52  30  43 N8        30.30S
OCEAN CITY     FAIR      53  30  41 NW15G23   30.26S
WALLOPS ISLAND FAIR      53  29  39 NW16G23   30.28S
ACCOMACK*      FAIR      51  30  46 NW14G21   30.30S
$$

NCZ012>017-030>032-201900-
NORTH CENTRAL AND EASTERN NORTH CAROLINA

CITY           SKY/WX    TMP DP  RH WIND       PRES   REMARKS
ROANOKE RAPIDS FAIR      59  27  29 NW9G16    30.32F
RALEIGH        FAIR      60  27  28 CALM      30.33F
ELIZABETH CITY FAIR      58  29  33 N8        30.30F
AHOSKIE*       FAIR      58  24  26 N9        30.31F
EDENTON*       FAIR      59  26  28 N6G18     30.32S
CURRITUCK*     NOT AVBL
KILL DEVIL HLS FAIR      50  31  49 N5G16     30.30F
MANTEO         FAIR      51  32  48 NE14      30.32S
CAPE HATTERAS  FAIR      58  35  42 NE12G17   30.32R
TARBORO*       NOT AVBL
GOLDSBORO      FAIR      62  27  27 NW5       30.30F
WASHINGTON     FAIR      60  26  27 N6        30.32F
GREENVILLE     FAIR      59  23  25 NW8       30.33S
NEW BERN       FAIR      60  31  33 NW12      30.32F
WILMINGTON     FAIR      63  30  28 W5        30.31F
$$

VAZ048-201900-
ELSEWHERE

CITY           SKY/WX    TMP DP  RH WIND       PRES   REMARKS
HARRISBURG PA  FAIR      52  28  39 NW13G21   30.26F
BALTIMORE      FAIR      55  26  32 NW14G23   30.27F
ANNAPOLIS      FAIR      54  30  40 NW14      30.27F
ANDREWS AFB    FAIR      54  25  32 W14G21    30.27F
PHILADELPHIA   FAIR      50  23  34 NW15G26   30.25S
HENDERSON NC   FAIR      56  25  29 N7        30.32F
GREENSBORO     FAIR      62  26  25 N8        30.32F
ROCKY MOUNT    FAIR      60  24  25 NW10      30.32F
$$

VAZ100-201900-
MARINE

STATION/POSITION TIME  TEMP    WIND        PRES    WAVE   SWELL
                       AIR SEA DIR/SP/G            HT/PER HT/PER
                 (UTC) (F)     (DEG/KT/KT) (MB)    (FT/S) (FT/S)
BRANDYWINE LGT   1742   45     350/ 16/ 19 1024.8F
CAPE MAY NJ      1748   48 49  330/  7/ 15 1024.1R
LEWES DE         1748   47 49  330/ 15/ 17 1024.4F
15NM E FENWICK I 1750   43 46  330/ 17/ 19 1024.6S   3/ 5
OCEAN-CITY-INLET 1748   49 48  340/ 15/ 21 1024.9S
WACHAPREAGUE VA  1748   51 53  330/  5/ 11 1025.8F
THOMAS POINT MD  1800   50 50  320/ 10/ 15 1026.2F
GOOSES REEF MD   1800   48      70/  8/ 12 1026.0
COVE POINT MD    1748   47      30/ 12/ 16 1026.1F
SOLOMONS ISLAND  1748   51 52  310/ 12/ 17 1025.3F
BISHOPS HEAD MD  1748   49 54  290/ 12/ 15 1026.0F
PINEY POINT MD   1748          310/ 17/ 20   N/A
POTOMAC MD       1800   49 51  290/ 14/ 19 1027.1    2/ 3
CAMBRIDGE MD     1748   51 53              1026.4F
LEWISETTA VA     1748   50 54  320/ 17/ 21 1026.0F
RAPPAHANNOCK LGT 1748          340/ 14/ 18 1026.5S
YORK RVR RNG VA  1748   52      10/  9/ 12 1026.2F
YORKTOWN VA      1748   52 56  310/ 16/ 20 1025.8F
DOMINION TERM VA 1748   52     300/ 13/ 18 1026.1F
KIPTOPEKE VA     1748      53  340/ 14/ 19   N/A
CAPE HENRY VA    1748   48     360/ 12/ 15   N/A
WILLOUBY STN VA  1748   52     290/ 11/ 16 1025.8F
S CRANEY ISL VA  1748   53     300/ 15/ 19 1025.9F
CAPE HENRY BUOY  1800      50                N/A     3/ 4
64NM E OF VA BCH 1750   45 49  320/ 16/ 19 1026.5R   5/ 6   2/11
DUCK PIER NC     1748   47 52   20/ 14/ 18 1025.8F
44100 DUCK FRF   1745      50                N/A     4/ 6
44056 DUCK FRF   1800      51                N/A     3/ 6   2/15
OREGON INLET NC  1736   48 54   20/ 12/ 17 1026.5R
HATTERAS NC      1748   53 60  350/ 12/ 16 1026.4R
DIAMOND SHLS NC  1800   51 70   10/ 12/ 17 1026.7
CAPE LOOKOUT NC  1800           60/ 10/ 11 1026.7F
$$




USA.gov is the U.S. government's official web portal to all federal, state and local government web resources and services.